EW4713 Weather Reports


Display with metric or nautical units.
time (UTC)temp
F
wind
direction
speed
MPH
gust
MPH
rain 1hr
in
rain 24hr
in
rain mn
in
humidity
%
barometer
mb
20260905131641 64 283 1.0 3.0 0.00 0.00 0.00 96 1014.3
20260905131141 63 352 0.0 3.0 0.00 0.00 0.00 96 1013.9
20260905130641 63 0 0.0 3.0 0.00 0.00 0.00 96 1013.9
20260905130130 63 340 0.0 4.0 0.00 0.00 0.00 96 1013.5
20260905125629 63 266 2.0 4.0 0.00 0.00 0.00 96 1013.9
20260905125129 63 276 2.0 5.0 0.00 0.00 0.00 96 1014.3
20260905124630 63 270 0.0 5.0 0.00 0.00 0.00 96 1013.5
20260905123629 63 346 1.0 5.0 0.00 0.00 0.00 96 1013.9
20260905123130 63 287 0.0 5.0 0.00 0.00 0.00 96 1014.3
20260905122630 63 250 0.0 6.0 0.00 0.00 0.00 95 1014.3
20260905122129 63 280 4.0 6.0 0.00 0.00 0.00 95 1013.9
20260905121129 63 10 0.0 5.0 0.00 0.00 0.00 96 1013.9
20260905120628 63 286 0.0 5.0 0.00 0.00 0.00 96 1013.5
20260905120129 63 344 2.0 6.0 0.00 0.00 0.00 96 1013.5
20260905115631 63 276 2.0 6.0 0.00 0.00 0.00 96 1013.5
20260905115129 63 257 2.0 6.0 0.00 0.00 0.00 96 1013.2
20260905114629 63 294 2.0 6.0 0.00 0.00 0.00 96 1013.2
20260905114129 63 337 1.0 5.0 0.00 0.00 0.00 96 1012.8
20260905113629 63 270 3.0 6.0 0.00 0.00 0.00 96 1013.2
20260905113129 63 295 2.0 6.0 0.00 0.00 0.00 96 1013.2
20260905112629 63 282 2.0 6.0 0.00 0.00 0.00 96 1013.2
20260905111629 63 337 1.0 5.0 0.00 0.00 0.00 96 1012.8
20260905111128 63 301 3.0 6.0 0.00 0.00 0.00 96 1012.8
20260905110631 63 264 1.0 6.0 0.00 0.00 0.00 96 1012.5
20260905110129 64 352 0.0 4.0 0.00 0.00 0.00 96 1012.5
20260905105630 64 306 1.0 4.0 0.00 0.00 0.00 96 1012.5
20260905105129 64 289 1.0 6.0 0.00 0.00 0.00 96 1012.5
20260905104628 64 331 1.0 6.0 0.00 0.00 0.00 96 1012.1
20260905104129 64 307 2.0 3.0 0.00 0.00 0.00 96 1012.1
20260905103630 64 324 2.0 6.0 0.00 0.00 0.00 96 1012.1
20260905103129 64 295 2.0 6.0 0.00 0.00 0.00 96 1012.1
20260905102129 64 249 0.0 6.0 0.00 0.00 0.00 96 1011.8
20260905101628 64 288 5.0 6.0 0.00 0.00 0.00 96 1011.8
20260905101128 64 334 3.0 6.0 0.00 0.00 0.00 96 1011.8
20260905100631 64 283 0.0 7.0 0.00 0.00 0.00 96 1011.8
20260905100129 64 275 2.0 7.0 0.00 0.00 0.00 96 1011.8
20260905095629 64 294 1.0 4.0 0.00 0.00 0.00 96 1011.8
20260905095128 64 283 1.0 6.0 0.00 0.00 0.00 95 1012.1
20260905094628 64 263 0.0 6.0 0.00 0.00 0.00 95 1011.8
20260905094128 64 287 0.0 7.0 0.00 0.00 0.00 95 1012.1
20260905093629 64 256 4.0 7.0 0.00 0.00 0.00 95 1012.5
20260905093127 64 261 0.0 7.0 0.00 0.00 0.00 95 1012.1
20260905092629 64 270 2.0 5.0 0.00 0.00 0.00 95 1012.8
20260905092126 64 294 0.0 4.0 0.00 0.00 0.00 95 1012.5
20260905091626 64 278 2.0 4.0 0.00 0.00 0.00 95 1012.5
20260905091126 64 270 0.0 5.0 0.00 0.00 0.00 95 1012.8
20260905090628 64 0 0.0 6.0 0.00 0.00 0.00 95 1012.5
20260905085626 64 232 2.0 5.0 0.00 0.00 0.00 95 1012.5
20260905085125 64 270 2.0 3.0 0.00 0.00 0.00 95 1012.5
20260905084625 64 286 1.0 3.0 0.00 0.00 0.00 95 1012.5
20260905084124 64 334 0.0 4.0 0.00 0.00 0.00 95 1012.5
20260905083626 64 287 2.0 4.0 0.00 0.00 0.00 95 1012.5
20260905083124 65 331 1.0 5.0 0.00 0.00 0.00 95 1012.5
20260905082623 64 295 2.0 5.0 0.00 0.00 0.00 94 1012.5
20260905082123 65 294 2.0 4.0 0.00 0.00 0.00 94 1012.5
20260905081623 64 291 3.0 4.0 0.00 0.00 0.00 95 1012.5
20260905081123 65 352 0.0 3.0 0.00 0.00 0.00 95 1012.8
20260905080622 65 289 0.0 2.0 0.00 0.00 0.00 94 1012.8
20260905075622 65 353 0.0 2.0 0.00 0.00 0.00 94 1012.8
20260905075122 65 331 1.0 3.0 0.00 0.00 0.00 94 1012.8
20260905074622 65 0 0.0 4.0 0.00 0.00 0.00 94 1012.5
20260905074120 65 323 3.0 4.0 0.00 0.00 0.00 93 1012.8
20260905073621 65 261 0.0 6.0 0.00 0.00 0.00 93 1012.5
20260905073120 65 284 3.0 6.0 0.00 0.00 0.00 93 1012.8
20260905072619 65 294 3.0 6.0 0.00 0.00 0.00 93 1012.8
20260905072120 65 270 0.0 4.0 0.00 0.00 0.00 94 1012.8
20260905071621 65 321 0.0 4.0 0.00 0.00 0.00 94 1012.8
20260905071118 66 5 1.0 3.0 0.00 0.00 0.00 93 1012.5
20260905070619 66 255 0.0 5.0 0.00 0.00 0.00 93 1012.8
20260905065618 65 307 2.0 4.0 0.00 0.00 0.00 93 1012.8
20260905065118 65 255 4.0 5.0 0.00 0.00 0.00 93 1012.8
20260905064619 65 315 2.0 5.0 0.00 0.00 0.00 93 1012.8
20260905064117 65 355 2.0 5.0 0.00 0.00 0.00 93 1012.8
20260905062616 65 289 0.0 3.0 0.00 0.00 0.00 95 1013.2
20260905062117 65 345 0.0 3.0 0.00 0.00 0.00 96 1012.8
20260905061618 65 0 0.0 3.0 0.00 0.00 0.00 96 1012.8
20260905061116 65 275 2.0 2.0 0.00 0.00 0.00 96 1013.2
20260905060615 65 286 0.0 2.0 0.00 0.00 0.00 96 1013.2
20260905060116 65 279 0.0 3.0 0.00 0.00 0.00 95 1013.2
20260905055614 65 285 3.0 3.0 0.00 0.00 0.00 95 1012.8
20260905054615 65 249 0.0 3.0 0.00 0.00 0.00 95 1013.2
20260905054113 65 295 0.0 3.0 0.00 0.00 0.00 95 1012.8
20260905053115 65 263 0.0 2.0 0.00 0.00 0.00 95 1012.8
20260905052613 65 270 0.0 2.0 0.00 0.00 0.00 95 1013.2
20260905052112 65 270 0.0 2.0 0.00 0.00 0.00 95 1012.8
20260905051112 65 257 0.0 2.0 0.00 0.00 0.00 94 1013.2
20260905050611 65 350 0.0 3.0 0.00 0.00 0.00 94 1012.8
20260905050112 65 0 0.0 3.0 0.00 0.00 0.00 94 1013.2
20260905045611 65 254 0.0 3.0 0.00 0.00 0.00 95 1013.2
20260905045111 65 246 0.0 2.0 0.00 0.00 0.00 94 1013.2
20260905044110 65 245 0.0 4.0 0.00 0.00 0.00 94 1013.2
20260905043609 65 334 2.0 5.0 0.00 0.00 0.00 95 1012.8
20260905043111 65 236 2.0 5.0 0.00 0.00 0.00 95 1013.2
20260905042609 65 0 1.0 3.0 0.00 0.00 0.00 95 1012.8
20260905042108 65 263 0.0 4.0 0.00 0.00 0.00 95 1012.8
20260905041610 65 308 2.0 4.0 0.00 0.00 0.00 94 1012.8
20260905041109 65 0 0.0 5.0 0.00 0.00 0.00 94 1012.8
20260905040607 66 270 2.0 5.0 0.00 0.01 0.00 94 1012.8
20260905040109 66 0 0.0 5.0 0.00 0.01 0.00 94 1012.8
20260905035607 66 311 3.0 5.0 0.00 0.01 0.00 94 1013.2
20260905034608 66 337 0.0 6.0 0.00 0.01 0.00 94 1013.2
20260905034106 66 247 2.0 6.0 0.00 0.01 0.00 94 1013.2
20260905033607 66 257 1.0 6.0 0.00 0.01 0.00 94 1012.8
20260905033105 66 279 2.0 6.0 0.00 0.01 0.00 94 1013.2
20260905032605 66 300 1.0 5.0 0.00 0.01 0.00 94 1013.2
20260905031605 66 259 3.0 4.0 0.00 0.07 0.00 95 1013.2
20260905031105 66 282 2.0 4.0 0.00 0.15 0.00 96 1013.2
20260905030606 65 7 0.0 3.0 0.00 0.33 0.00 97 1013.2
20260905025103 64 279 0.0 3.0 0.00 0.48 0.00 98 1012.8
20260905023602 64 270 0.0 0.0 0.00 0.48 0.00 99 1012.8
20260905023101 64 270 0.0 0.0 0.00 0.48 0.00 98 1012.8
20260905022101 64 270 0.0 0.0 0.00 0.48 0.00 98 1012.5
20260905021601 64 270 0.0 0.0 0.00 0.48 0.00 98 1012.8
20260905021101 64 270 0.0 0.0 0.00 0.48 0.00 98 1012.8
20260905020601 64 270 0.0 0.0 0.00 0.48 0.00 97 1012.5
20260905020100 64 270 0.0 1.0 0.00 0.48 0.00 97 1012.5
20260905015600 64 294 0.0 3.0 0.00 0.48 0.00 97 1012.8
20260905014559 65 261 0.0 2.0 0.00 0.48 0.00 97 1012.1
20260905014058 65 277 0.0 2.0 0.00 0.48 0.00 97 1012.1
20260905013559 65 261 0.0 3.0 0.00 0.48 0.00 96 1012.1
20260905013058 65 278 0.0 4.0 0.00 0.48 0.00 96 1012.1
20260905012557 65 300 0.0 4.0 0.00 0.48 0.00 96 1012.1
20260905012058 65 270 1.0 3.0 0.00 0.48 0.00 96 1012.1
20260905011557 66 0 0.0 3.0 0.00 0.48 0.00 95 1012.1
20260905011057 66 270 2.0 3.0 0.00 0.48 0.00 95 1012.1
20260905010557 66 261 0.0 2.0 0.00 0.48 0.00 94 1012.1
20260905010058 66 262 1.0 4.0 0.00 0.48 0.00 94 1012.1
20260905005056 67 278 1.0 4.0 0.00 0.48 0.00 93 1012.1
20260905004555 67 297 0.0 4.0 0.00 0.48 0.00 92 1012.5
20260905004055 67 0 0.0 2.0 0.00 0.48 0.00 92 1012.1
20260905003054 68 340 0.0 4.0 0.00 0.48 0.00 91 1012.1
20260905002554 68 334 2.0 5.0 0.00 0.48 0.00 91 1011.8
20260905002054 69 292 2.0 5.0 0.00 0.48 0.00 90 1011.8
20260905001553 69 300 0.0 4.0 0.00 0.48 0.00 90 1012.1
20260905001053 69 262 1.0 4.0 0.00 0.48 0.00 89 1011.8
20260905000053 70 301 2.0 5.0 0.00 0.48 0.00 88 1011.8
20260904235552 71 311 3.0 5.0 0.00 0.48 0.00 87 1011.8
20260904235052 71 306 0.0 6.0 0.00 0.48 0.00 87 1011.8
20260904234552 71 331 2.0 6.0 0.00 0.48 0.00 86 1011.8
20260904234051 72 276 0.0 4.0 0.00 0.48 0.00 84 1011.8
20260904233551 73 297 2.0 4.0 0.00 0.48 0.00 84 1011.8
20260904233051 73 341 2.0 3.0 0.00 0.48 0.00 83 1011.8
20260904232552 73 337 0.0 3.0 0.00 0.48 0.00 84 1011.8
20260904232050 74 262 0.0 3.0 0.00 0.48 0.00 83 1011.8
20260904231050 74 254 1.0 6.0 0.00 0.48 0.00 82 1011.5
20260904230049 75 279 0.0 3.0 0.00 0.48 0.00 80 1011.5
20260904225550 75 307 2.0 6.0 0.00 0.48 0.00 80 1011.5
20260904225048 75 332 2.0 6.0 0.00 0.48 0.00 79 1011.5
20260904224550 75 270 1.0 5.0 0.00 0.49 0.00 79 1011.0
20260904224049 76 292 3.0 4.0 0.00 0.49 0.00 77 1011.5
20260904223549 76 282 0.0 4.0 0.00 0.49 0.00 78 1011.5
20260904223047 76 306 1.0 4.0 0.00 0.49 0.00 78 1011.0
20260904222548 77 274 3.0 4.0 0.00 0.50 0.00 77 1011.0
20260904222046 77 254 1.0 5.0 0.00 0.52 0.00 77 1011.0
20260904221046 77 212 0.0 4.0 0.00 0.61 0.00 77 1011.0
20260904220046 77 257 1.0 4.0 0.00 0.62 0.00 77 1011.0
20260904215547 76 312 2.0 4.0 0.00 0.65 0.00 78 1011.0
20260904215045 77 262 0.0 4.0 0.00 0.74 0.00 76 1011.0
20260904214545 78 264 2.0 4.0 0.00 1.08 0.00 76 1011.0
20260904214045 77 251 1.0 3.0 0.00 1.26 0.00 77 1011.0
20260904213546 77 315 2.0 5.0 0.00 1.26 0.00 77 1010.7
20260904212545 78 270 3.0 5.0 0.00 1.26 0.00 77 1010.7
20260904212044 78 355 0.0 5.0 0.00 1.26 0.00 76 1011.0
20260904211544 77 319 2.0 6.0 0.00 1.26 0.00 77 1011.0
20260904211042 77 261 0.0 6.0 0.00 1.26 0.00 78 1011.0
20260904210544 76 292 2.0 5.0 0.00 1.26 0.00 76 1011.0
20260904210042 77 243 1.0 4.0 0.00 1.26 0.00 75 1011.0
20260904205543 79 300 2.0 4.0 0.00 1.26 0.00 76 1011.0
20260904205041 78 243 1.0 4.0 0.00 1.26 0.00 75 1011.0
20260904203542 78 206 0.0 4.0 0.00 1.26 0.00 74 1011.5
20260904203040 78 286 2.0 4.0 0.00 1.26 0.00 74 1011.0
20260904202039 77 315 2.0 5.0 0.00 1.26 0.00 75 1011.0
20260904201541 76 243 2.0 5.0 0.00 1.26 0.00 76 1011.0
20260904201039 77 270 0.0 5.0 0.00 1.26 0.00 77 1011.0
20260904200538 76 289 0.0 4.0 0.00 1.26 0.00 77 1011.0
20260904200038 76 225 2.0 5.0 0.00 1.26 0.00 78 1011.5
20260904195540 76 236 2.0 5.0 0.00 1.26 0.00 80 1011.5
20260904195038 75 276 1.0 4.0 0.00 1.26 0.00 79 1011.5
20260904194537 75 264 1.0 5.0 0.00 1.26 0.00 79 1011.5
20260904194037 76 255 1.0 5.0 0.00 1.26 0.00 78 1011.5
20260904193538 75 0 1.0 5.0 0.00 1.26 0.00 80 1011.0
20260904193036 74 270 1.0 5.0 0.00 1.26 0.00 79 1011.5
20260904192537 75 217 2.0 5.0 0.00 1.26 0.00 79 1011.5
20260904191536 74 294 3.0 5.0 0.00 1.26 0.00 79 1011.5
20260904191036 74 262 0.0 3.0 0.00 1.26 0.00 80 1011.5
20260904190535 74 216 0.0 3.0 0.00 1.26 0.00 80 1011.5
20260904190035 74 356 2.0 4.0 0.00 1.26 0.00 81 1011.5
20260904185534 73 274 0.0 4.0 0.00 1.26 0.00 83 1011.5
20260904185035 73 270 0.0 2.0 0.00 1.26 0.00 82 1011.5
20260904183534 72 325 0.0 6.0 0.00 1.26 0.00 85 1011.5
20260904182530 71 315 2.0 4.0 0.00 1.26 0.00 85 1011.5
20260904182029 71 180 0.0 3.0 0.00 1.26 0.00 89 1011.5
20260904181528 70 352 0.0 3.0 0.00 1.26 0.00 87 1011.5
20260904181029 70 188 0.0 4.0 0.00 1.26 0.00 89 1011.5
20260904180528 70 319 2.0 5.0 0.00 1.26 0.00 89 1011.5
20260904180031 68 262 0.0 7.0 0.00 1.26 0.00 90 1011.0
20260904175529 69 264 2.0 7.0 0.00 1.26 0.00 87 1011.5
20260904175029 69 250 2.0 4.0 0.00 1.26 0.00 90 1011.5
20260904174530 68 261 0.0 2.0 0.00 1.26 0.00 90 1011.5
20260904174028 68 188 0.0 3.0 0.00 1.26 0.00 91 1011.5
20260904173529 68 315 0.0 3.0 0.00 1.26 0.00 91 1011.5
20260904173029 67 254 0.0 6.0 0.00 1.26 0.00 92 1011.5
20260904172531 67 283 0.0 6.0 0.00 1.26 0.00 93 1011.5
20260904172029 67 270 0.0 3.0 0.00 1.26 0.00 93 1011.5
20260904171530 66 289 1.0 5.0 0.00 1.26 0.00 92 1011.5
20260904171028 67 228 2.0 6.0 0.00 1.26 0.00 93 1011.5
20260904170529 66 265 2.0 6.0 0.00 1.26 0.00 92 1011.0
20260904170027 66 334 1.0 5.0 0.00 1.26 0.00 95 1011.0
20260904165529 65 334 0.0 5.0 0.00 1.26 0.00 96 1011.5
20260904164528 64 309 0.0 6.0 0.00 1.26 0.00 98 1011.5
20260904164026 63 326 4.0 6.0 0.00 1.26 0.00 98 1011.0
20260904163527 64 261 0.0 5.0 0.00 1.26 0.00 99 1011.0
20260904163025 63 289 1.0 6.0 0.00 1.26 0.00 99 1011.0
20260904162025 64 254 0.0 4.0 0.00 1.26 0.00 99 1011.0
20260904161527 64 321 0.0 4.0 0.00 1.26 0.00 99 1011.0
20260904161025 63 270 1.0 4.0 0.00 1.26 0.00 99 1011.0
20260904160526 64 254 1.0 4.0 0.00 1.26 0.00 99 1011.0
20260904160024 63 324 0.0 4.0 0.00 1.26 0.00 99 1011.0
20260904155526 63 315 2.0 3.0 0.00 1.26 0.00 99 1011.0
20260904155023 63 195 0.0 3.0 0.00 1.26 0.00 99 1011.0
20260904154525 63 348 0.0 3.0 0.00 1.26 0.00 99 1011.0
20260904153524 63 255 0.0 2.0 0.00 1.26 0.00 99 1010.7
20260904153022 63 261 0.0 2.0 0.00 1.26 0.00 99 1011.0
20260904152021 62 288 2.0 2.0 0.00 1.26 0.00 99 1011.0
20260904151021 63 331 0.0 3.0 0.00 1.26 0.00 99 1010.3
20260904150522 63 0 0.0 3.0 0.00 1.26 0.00 99 1010.3
20260904150020 63 337 0.0 2.0 0.00 1.26 0.00 99 1010.3
20260904145521 62 240 2.0 3.0 0.00 1.26 0.00 99 1010.3
20260904145021 63 255 0.0 3.0 0.00 1.26 0.00 99 1010.3
20260904144520 63 291 0.0 2.0 0.00 1.26 0.00 99 1010.0
20260904144019 63 270 0.0 2.0 0.00 1.26 0.00 99 1010.3
20260904143521 62 188 0.0 2.0 0.00 1.26 0.00 99 1010.3
20260904143019 62 249 0.0 2.0 0.00 1.26 0.00 99 1010.7
20260904142519 62 270 0.0 2.0 0.00 1.26 0.00 99 1010.3
20260904142018 63 7 0.0 2.0 0.00 1.26 0.00 99 1010.0
20260904141519 63 270 1.0 2.0 0.00 1.26 0.00 99 1009.7
20260904141017 63 353 0.0 2.0 0.00 1.26 0.00 99 1009.7
20260904140518 62 290 2.0 2.0 0.00 1.26 0.00 99 1009.7
20260904140017 63 300 0.0 2.0 0.00 1.26 0.00 99 1009.7
20260904135518 63 262 0.0 2.0 0.00 1.26 0.00 99 1009.7
20260904135017 62 297 0.0 2.0 0.00 1.26 0.00 99 1009.7
20260904134518 62 270 0.0 3.0 0.00 1.26 0.00 99 1009.7
20260904134015 62 294 0.0 3.0 0.00 1.26 0.00 99 1009.7
20260904133517 62 279 0.0 2.0 0.00 1.26 0.00 99 1009.7
20260904133015 62 294 0.0 2.0 0.00 1.26 0.00 99 1009.7
20260904132516 62 300 0.0 2.0 0.00 1.26 0.00 99 1009.3